Location: Bermeries
(50.2863°N, 3.7551°E)
Time: 11:38:45
(UTC+00:00)

Cosmos 2322 Rocket - Pass Details

Date: 23 May 2024
Orbit: 832 x 850 km, 71.0° (Epoch: 14 June)

Event Time Altitude Azimuth Distance (km) Brightness Sun altitude
Rises 02:34:33 0° 326° (NW) 3,402 5.6 -9.5°
Reaches altitude 10° 02:37:08 10° 319° (NW) 2,466 4.7 -9.2°
Maximum altitude 02:42:19 39° 252° (WSW) 1,251 2.7 -8.6°
Drops below altitude 10° 02:47:31 10° 185° (S) 2,461 4.2 -8.1°
Sets 02:50:05 0° 178° (S) 3,394 4.9 -7.8°
